Cosmos 1939 - Orbit

View from above orbital plane
View from above orbital plane
View from above satellite
View from above satellite

Ground track
Ground track

The orbit data is extracted from the following two-line orbital elements,

1 19045U 88032A   13139.22128517  .00022221  00000-0  49959-3 0  4954
2 19045 097.2799 197.5114 0007678 102.4492 289.3931 15.43314379379400
Epoch (UTC): 19 May 2013 05:18:39
Eccentricity: 0.0007678
inclination: 97.2799°
perigee height: 431 km
apogee height: 441 km
right ascension of ascending node: 197.5114°
argument of perigee: 102.4492°
revolutions per day: 15.43314379
mean anomaly at epoch: 289.3931°
orbit number at epoch: 37940

The dashed part of the orbit path shows where the satellite is in the earth's shadow,  

Developed and maintained by Chris Peat, Heavens-Above GmbH. Please read the updated FAQ before sending e-mail. Imprint. DLR